Tracking 21612 objects as of 19-Oct-2020
HD Live streaming from Space Station
objects crossing your sky now

SL-12 DEB

Track SL-12 DEB now!
10-day predictions


NORAD ID: 46429
Int'l Code: 2010-007AR
Perigee: 267.3 km
Apogee: 19,566.4 km
Inclination: 64.4 °
Period: 344.8 minutes
Semi major axis: 16287 km
RCS: Unknown
Launch date: March 1, 2010
Source: Commonwealth of Independent States (former USSR) (CIS)
Launch site: TYURATAM MISSILE AND SPACE COMPLEX (TTMTR)

Note: This is SATELLITE DEBRIS
aabbcc
Your satellite tracking list
Your tracking list is empty




NASA's NSSDC Master Catalog

Two Line Element Set (TLE):
1 46429U 10007AR  20292.54918912  .00143002  00000-0  18199-1 0  9996
2 46429  64.3575 230.0671 5924369  18.4254 356.1148  4.17644015 31631
Source of the keplerian elements: AFSPC